Weather History for Burbank, CA

Change the Weather History Date:

Tuesday, March 11, 2014

  Actual Average Record
Temperature  
Mean Temperature 65 °F 58 °F  
Max Temperature 78 °F 70 °F 92 °F (1997)
Min Temperature 51 °F 46 °F 34 °F (1969)
Degree Days  
Heating Degree Days 0 7  
Month to date heating degree days 35 84  
Since 1 July heating degree days 512 1225  
Cooling Degree Days 0 0  
Month to date cooling degree days 8 0  
Year to date cooling degree days 68 6  
Growing Degree Days 15 (Base 50)    
Moisture  
Dew Point 37 °F    
Average Humidity 40    
Maximum Humidity 65    
Minimum Humidity 15    
Precipitation  
Precipitation 0.00 in 0.11 in 3.70 in (1995)
Month to date precipitation 0.79 1.39  
Year to date precipitation 4.85 9.40  
Since 1 July precipitation 5.28 14.16  
Sea Level Pressure  
Sea Level Pressure 29.93 in    
Wind  
Wind Speed 2 mph (ESE)    
Max Wind Speed 9 mph    
Max Gust Speed 14 mph    
Visibility 10 miles    
Events      
T = Trace of Precipitation, MM = Missing Value Source: NWS Daily Summary

Daily Weather History Graph

Daily Weather History Graph

Search for Another Location

Airport:

Trip Planner

Search our weather history database for the weather conditions in past years. The results will help you decide how hot, cold, wet, or windy it might be!

Date:

Astronomy

Mar. 11, 2014 Rise Set
Actual Time 7:09 AM PDT 6:58 PM PDT
Civil Twilight 6:44 AM PDT 7:23 PM PDT
Nautical Twilight 6:15 AM PDT 7:52 PM PDT
Astronomical Twilight 5:46 AM PDT 8:21 PM PDT
Moon 2:47 PM PDT (3/11) 3:56 AM PDT (3/11)
Length of Visible Light 12h 38m
Length of Day
11h 48m
Waxing Gibbous, 79% of the Moon is Illuminated
Mar 11
Waxing Gibbous
Mar 16
Full
Mar 23
Last Quarter
Mar 30
New
Apr 7
First Quarter

Hourly Weather History & Observations

Time (PDT) Temp. Dew Point Humidity Pressure Visibility Wind Dir Wind Speed Gust Speed Precip Events Conditions
12:53 AM 61.0 °F 41.0 °F 48% 29.96 in 10.0 mi SE 3.5 mph - N/A   Clear
1:53 AM 59.0 °F 41.0 °F 51% 29.96 in 10.0 mi East 4.6 mph - N/A   Clear
2:53 AM 60.1 °F 41.0 °F 49% 29.95 in 10.0 mi Calm Calm - N/A   Clear
3:53 AM 57.0 °F 39.0 °F 51% 29.93 in 10.0 mi Calm Calm - N/A   Clear
4:53 AM 54.0 °F 36.0 °F 51% 29.93 in 10.0 mi Calm Calm - N/A   Clear
5:53 AM 53.1 °F 36.0 °F 52% 29.93 in 10.0 mi Calm Calm - N/A   Clear
6:53 AM 52.0 °F 36.0 °F 54% 29.94 in 10.0 mi Calm Calm - N/A   Clear
7:53 AM 53.1 °F 37.9 °F 57% 29.96 in 10.0 mi Calm Calm - N/A   Clear
8:53 AM 59.0 °F 37.0 °F 44% 29.98 in 10.0 mi Calm Calm - N/A   Clear
9:53 AM 64.9 °F 36.0 °F 34% 29.98 in 10.0 mi Calm Calm - N/A   Clear
10:53 AM 68.0 °F 34.0 °F 28% 29.98 in 10.0 mi Calm Calm - N/A   Clear
11:53 AM 71.1 °F 34.0 °F 26% 29.97 in 10.0 mi SE 3.5 mph - N/A   Clear
12:53 PM 73.0 °F 30.0 °F 20% 29.94 in 10.0 mi Calm Calm - N/A   Clear
1:53 PM 75.9 °F 30.0 °F 19% 29.92 in 10.0 mi Calm Calm - N/A   Clear
2:53 PM 75.9 °F 27.0 °F 16% 29.90 in 10.0 mi Calm Calm - N/A   Clear
3:53 PM 77.0 °F 30.0 °F 18% 29.89 in 10.0 mi Calm Calm - N/A   Clear
4:53 PM 75.9 °F 36.0 °F 23% 29.88 in 10.0 mi SSW 4.6 mph - N/A   Clear
5:53 PM 78.1 °F 27.0 °F 15% 29.88 in 10.0 mi Calm Calm - N/A   Clear
6:53 PM 75.0 °F 24.1 °F 15% 29.88 in 10.0 mi NNW 6.9 mph - N/A   Clear
7:53 PM 71.1 °F 27.0 °F 19% 29.90 in 10.0 mi ESE 4.6 mph - N/A   Clear
8:53 PM 66.0 °F 50.0 °F 56% 29.92 in 10.0 mi East 5.8 mph - N/A   Clear
9:53 PM 63.0 °F 50.0 °F 63% 29.94 in 10.0 mi SE 6.9 mph - N/A   Clear
10:53 PM 61.0 °F 48.0 °F 62% 29.95 in 10.0 mi ESE 5.8 mph - N/A   Clear
11:53 PM 60.1 °F 48.0 °F 64% 29.96 in 10.0 mi East 5.8 mph - N/A   Clear